THOR ABLESTAR DEB, 357

Orbit data source: Space-Track

THOR ABLESTAR DEB, 357 is space debris in LEO originally from a launch on Thu, 29 Jun 1961 UTC launched from the Air Force Eastern Test Range (AFETR). Debris objects in space refer to the collection of defunct objects orbiting the Earth. Examples of debris include non-operational satellites, rocket bodies, and fragments generated from explosions, collisions, or faulty payload assembly.

Loading next visibility...
Identifier
357, 1961-015DX
Orbit
LEO
Country
Flag of USUS
Related business
Manufacturer
Unknown
Mission
Spacecraft
Bus & Motor
Unknown
Mass
Unknown
Launch date (UTC)
1961-06-29 (65 years ago)
Launch vehicle
Unknown
Launch site
Air Force Eastern Test Range (AFETR)
Object type
Payload
Rocket body
Debris
Shape & HBR
Unknown shape, 0.1 m
Radar Cross Section
Small (<0.1 m²)

Expand to show TLE details & history
Last TLE update: 10 hours ago

TLE from 10 hours ago
0 THOR ABLESTAR DEB
1   357U 61015DX  26129.54520794  .00000878  00000-0  54685-3 0  9998
2   357  66.8090 343.4755 0016546 244.5384 115.3993 14.09512285290413
Epoch: 2026-05-09T13:05Z
TLE epoch observation values (Epoch: 2026-05-09T13:05:05.966Z)
Latitude
0.00001°
Longitude
-80.16046°
Altitude
868.291 km
Speed
7.416 km/s
True Right ascension
22h 53m 54s
True Declination
0° 00' 00"
Sunlit
Object was in daylight at epoch
Visualization orbit readout
Latitude
Unknown
Longitude
Unknown
Altitude
Unknown
Speed
Unknown
Apparent Right ascension
Unknown
Apparent Declination
Unknown
Sunlit
N/A
Visualization observer readout
Local Sidereal Time
07:15:13
Azimuth
Unknown
Elevation
Unknown
Doppler factor
Unknown
Orbital elements
Apogee altitude
871.394 km
Perigee altitude
847.444 km
Semi-major axis
7,237.556 km
Eccentricity
0.00165
Inclination
66.809°
RAAN
343.4755°
Arg. of periapsis
244.5384°
True anomaly
115.57042°
Mean anomaly
115.3993°
Eccentric anomaly
115.48488°
Mean motion
3.52497 °/min
Orbital period
102.13 mins
BSTAR
0.00054685
Loading maneuver chart data...
Computing Atmospheric mass density...

Documentation

Showing up to 5 results
|